This is the latest recevied weather packets stored in our database for station/object KD9ZDW. If no packets are shown the sender has not sent any weather packets the latest 10 day(s).
| Time | Temp. | Humidity | Pressure | Rain* | Wind** | Luminosity | Snow |
|---|---|---|---|---|---|---|---|
| 1777910355 | 20.56° C | 55% | 1007.4 hPa | 0 mm | - | 210 W/m² | - |
| 1777910052 | 20° C | 58% | 1007.4 hPa | 0 mm | - | 93 W/m² | - |
| 1777909749 | 19.44° C | 57% | 1007.6 hPa | 0 mm | - | 316 W/m² | - |
| 1777909446 | 19.44° C | 59% | 1007.5 hPa | 0 mm | - | 393 W/m² | - |
| 1777909144 | 19.44° C | 59% | 1007.5 hPa | 0 mm | - | 344 W/m² | - |
| 1777908842 | 19.44° C | 60% | 1007.6 hPa | 0 mm | - | 238 W/m² | - |
| 1777908538 | 18.89° C | 57% | 1007.5 hPa | 0 mm | - | 278 W/m² | - |
| 1777908235 | 18.89° C | 59% | 1007.6 hPa | 0 mm | - | 160 W/m² | - |
| 1777907932 | 18.33° C | 59% | 1007.7 hPa | 0 mm | - | 285 W/m² | - |
| 1777907627 | 18.33° C | 58% | 1007.8 hPa | 0 mm | - | 263 W/m² | - |
| 1777907323 | 17.78° C | 58% | 1007.6 hPa | 0 mm | - | 438 W/m² | - |
| 1777907019 | 17.22° C | 58% | 1007.8 hPa | 0 mm | - | 524 W/m² | - |
| 1777906717 | 17.78° C | 59% | 1007.7 hPa | 0 mm | - | 112 W/m² | - |
| 1777906413 | 17.78° C | 60% | 1007.7 hPa | 0 mm | - | 118 W/m² | - |
| 1777906110 | 17.78° C | 61% | 1007.8 hPa | 0 mm | - | 120 W/m² | - |
| 1777905806 | 17.78° C | 61% | 1008 hPa | 0 mm | - | 128 W/m² | - |
| 1777905504 | 16.67° C | 65% | 1008.1 hPa | 0 mm | - | 297 W/m² | - |
| 1777905200 | 16.67° C | 62% | 1008.1 hPa | 0 mm | - | 144 W/m² | - |
| 1777904898 | 16.67° C | 63% | 1007.9 hPa | 0 mm | - | 86 W/m² | - |
| 1777904595 | 16.11° C | 64% | 1007.9 hPa | 0 mm | - | 249 W/m² | - |
| 1777904292 | 16.11° C | 64% | 1008 hPa | 0 mm | - | 111 W/m² | - |
| 1777903989 | 15.56° C | 66% | 1008.2 hPa | 0 mm | - | 169 W/m² | - |
| 1777903686 | 16.11° C | 64% | 1008.2 hPa | 0 mm | - | 121 W/m² | - |
| 1777903382 | 15.56° C | 65% | 1008.3 hPa | 0 mm | - | 226 W/m² | - |
| 1777903078 | 15.56° C | 66% | 1008.3 hPa | 0 mm | - | 60 W/m² | - |
* Rain latest hour (hover to see other rain measurements)
** Current wind speed in m/s (hover to see current wind gust speed)